Weather reports worldwide

Advertisment
Belgrad, Serbia (13274): temperature & dewpoint: 17.09.2017 07:00:00 - 23.09.2017 07:00:00 (CEST)Belgrad, Serbia (13274): wind speed: 17.09.2017 07:00:00 - 23.09.2017 07:00:00 (CEST)Belgrad, Serbia (13274): wind direction: 17.09.2017 07:00:00 - 23.09.2017 07:00:00 (CEST)Belgrad, Serbia (13274): reduced air pressure: 17.09.2017 07:00:00 - 23.09.2017 07:00:00 (CEST)Belgrad, Serbia (13274): visibility: 17.09.2017 07:00:00 - 23.09.2017 07:00:00 (CEST)
Date & Time tt [°C] td [°C] ff [km/h] ff [kn] dd ppp [hPa] vv [km]
23.09.2017 07:00:00 - - - - - - -
23.09.2017 06:00:00 - - - - - - -
23.09.2017 05:00:00 12,0 10,4 4 2 WSW 1019,9 20
23.09.2017 04:00:00 - - - - - - -
23.09.2017 03:00:00 - - - - - - -
23.09.2017 02:00:00 12,0 10,8 4 2 W 1020,2 20
23.09.2017 01:00:00 - - - - - - -
23.09.2017 00:00:00 - - - - - - -
22.09.2017 23:00:00 14,0 10,9 7 4 WSW 1020,1 20
22.09.2017 22:00:00 - - - - - - -
22.09.2017 21:00:00 - - - - - - -
22.09.2017 20:00:00 13,8 11,4 4 2 WSW 1020,2 20
22.09.2017 19:00:00 - - - - - - -
22.09.2017 18:00:00 - - - - - - -
22.09.2017 17:00:00 14,7 11,1 7 4 W 1019,3 20
22.09.2017 16:00:00 - - - - - - -
22.09.2017 15:00:00 - - - - - - -
22.09.2017 14:00:00 14,5 10,3 7 4 W 1018,8 10
22.09.2017 13:00:00 - - - - - - -
22.09.2017 12:00:00 - - - - - - -
22.09.2017 11:00:00 12,8 11,1 7 4 W 1018,5 10
22.09.2017 10:00:00 - - - - - - -
22.09.2017 09:00:00 - - - - - - -
22.09.2017 08:00:00 11,2 10,3 7 4 W 1017,3 4,0
22.09.2017 07:00:00 - - - - - - -
22.09.2017 06:00:00 - - - - - - -
22.09.2017 05:00:00 11,2 10,3 7 4 W 1016,7 10
22.09.2017 04:00:00 - - - - - - -
22.09.2017 03:00:00 - - - - - - -
22.09.2017 02:00:00 11,6 9,7 11 6 W 1016,6 20
22.09.2017 01:00:00 - - - - - - -
22.09.2017 00:00:00 - - - - - - -
21.09.2017 23:00:00 11,7 10,2 7 4 W 1016,5 20
21.09.2017 22:00:00 - - - - - - -
21.09.2017 21:00:00 - - - - - - -
21.09.2017 20:00:00 11,2 9,8 11 6 W 1016,6 10
21.09.2017 19:00:00 - - - - - - -
21.09.2017 18:00:00 - - - - - - -
21.09.2017 17:00:00 12,5 10,2 11 6 W 1015,5 4,0
21.09.2017 16:00:00 - - - - - - -
21.09.2017 15:00:00 - - - - - - -
21.09.2017 14:00:00 11,8 10,3 7 4 W 1014,8 4,0
21.09.2017 13:00:00 - - - - - - -
21.09.2017 12:00:00 - - - - - - -
21.09.2017 11:00:00 11,4 10,6 11 6 W 1014,1 4,0
21.09.2017 10:00:00 - - - - - - -
21.09.2017 09:00:00 - - - - - - -
21.09.2017 08:00:00 11,2 10,5 11 6 W 1012,5 4,0
21.09.2017 07:00:00 - - - - - - -
21.09.2017 06:00:00 - - - - - - -
21.09.2017 05:00:00 11,6 10,9 7 4 W 1012,4 4,0
21.09.2017 04:00:00 - - - - - - -
21.09.2017 03:00:00 - - - - - - -
21.09.2017 02:00:00 11,7 11,2 7 4 W 1012,5 2,0
21.09.2017 01:00:00 - - - - - - -
21.09.2017 00:00:00 - - - - - - -
20.09.2017 23:00:00 11,9 11,4 11 6 W 1012,7 4,0
20.09.2017 22:00:00 - - - - - - -
20.09.2017 21:00:00 - - - - - - -
20.09.2017 20:00:00 12,8 11,4 11 6 W 1012,2 10
20.09.2017 19:00:00 - - - - - - -
20.09.2017 18:00:00 - - - - - - -
20.09.2017 17:00:00 13,2 12,1 4 2 W 1011,7 10
20.09.2017 16:00:00 - - - - - - -
20.09.2017 15:00:00 - - - - - - -
20.09.2017 14:00:00 15,2 12,5 7 4 NNW 1010,6 10
20.09.2017 13:00:00 - - - - - - -
20.09.2017 12:00:00 - - - - - - -
20.09.2017 11:00:00 16,6 11,8 7 4 NW 1011,1 20
20.09.2017 10:00:00 - - - - - - -
20.09.2017 09:00:00 - - - - - - -
20.09.2017 08:00:00 14,4 12,4 4 2 NW 1011,2 20
20.09.2017 07:00:00 - - - - - - -
20.09.2017 06:00:00 - - - - - - -
20.09.2017 05:00:00 14,4 12,0 0 0 N 1010,7 20
20.09.2017 04:00:00 - - - - - - -
20.09.2017 03:00:00 - - - - - - -
20.09.2017 02:00:00 15,7 12,5 4 2 SE 1011,2 20
20.09.2017 01:00:00 - - - - - - -
20.09.2017 00:00:00 - - - - - - -
19.09.2017 23:00:00 15,8 12,1 0 0 N 1011,1 20
19.09.2017 22:00:00 - - - - - - -
19.09.2017 21:00:00 - - - - - - -
19.09.2017 20:00:00 17,3 13,5 14 8 NNW 1010,5 20
19.09.2017 19:00:00 - - - - - - -
19.09.2017 18:00:00 - - - - - - -
19.09.2017 17:00:00 25,4 8,5 7 4 ESE 1006,5 20
19.09.2017 16:00:00 - - - - - - -
19.09.2017 15:00:00 - - - - - - -
19.09.2017 14:00:00 25,1 7,4 7 4 SW 1007,3 20
19.09.2017 13:00:00 - - - - - - -
19.09.2017 12:00:00 - - - - - - -
19.09.2017 11:00:00 22,5 10,2 7 4 SE 1008,8 20
19.09.2017 10:00:00 - - - - - - -
19.09.2017 09:00:00 - - - - - - -
19.09.2017 08:00:00 14,8 10,5 4 2 WNW 1010,7 20
19.09.2017 07:00:00 - - - - - - -
19.09.2017 06:00:00 - - - - - - -
19.09.2017 05:00:00 14,1 11,7 0 0 N 1011,4 20
19.09.2017 04:00:00 - - - - - - -
19.09.2017 03:00:00 - - - - - - -
19.09.2017 02:00:00 17,3 9,7 0 0 N 1013,2 20
19.09.2017 01:00:00 - - - - - - -
19.09.2017 00:00:00 - - - - - - -
18.09.2017 23:00:00 18,2 9,8 7 4 NE 1014,9 20
18.09.2017 22:00:00 - - - - - - -
18.09.2017 21:00:00 - - - - - - -
18.09.2017 20:00:00 19,9 10,5 4 2 NE 1015,2 20
18.09.2017 19:00:00 - - - - - - -
18.09.2017 18:00:00 - - - - - - -
18.09.2017 17:00:00 22,9 9,4 7 4 NE 1015,4 10
18.09.2017 16:00:00 - - - - - - -
18.09.2017 15:00:00 - - - - - - -
18.09.2017 14:00:00 22,6 3,0 4 2 SW 1014,6 20
18.09.2017 13:00:00 - - - - - - -
18.09.2017 12:00:00 - - - - - - -
18.09.2017 11:00:00 18,5 14,9 7 4 NNE 1017,6 10
18.09.2017 10:00:00 - - - - - - -
18.09.2017 09:00:00 - - - - - - -
18.09.2017 08:00:00 13,8 13,8 4 2 WNW 1017,3 4,0
18.09.2017 07:00:00 - - - - - - -
18.09.2017 06:00:00 - - - - - - -
18.09.2017 05:00:00 14,0 13,0 4 2 S 1016,3 20
18.09.2017 04:00:00 - - - - - - -
18.09.2017 03:00:00 - - - - - - -
18.09.2017 02:00:00 15,5 14,1 0 0 N 1015,7 20
18.09.2017 01:00:00 - - - - - - -
18.09.2017 00:00:00 - - - - - - -
17.09.2017 23:00:00 16,6 14,9 7 4 S 1014,6 20
17.09.2017 22:00:00 - - - - - - -
17.09.2017 21:00:00 - - - - - - -
17.09.2017 20:00:00 17,3 14,9 7 4 SE 1014,0 20
17.09.2017 19:00:00 - - - - - - -
17.09.2017 18:00:00 - - - - - - -
17.09.2017 17:00:00 18,4 14,5 4 2 WNW 1013,0 10
17.09.2017 16:00:00 - - - - - - -
17.09.2017 15:00:00 - - - - - - -
17.09.2017 14:00:00 31,6 12,1 11 6 SE 1006,2 20
17.09.2017 13:00:00 - - - - - - -
17.09.2017 12:00:00 - - - - - - -
17.09.2017 11:00:00 24,6 11,7 14 8 SSE 1009,3 20
17.09.2017 10:00:00 - - - - - - -
17.09.2017 09:00:00 - - - - - - -
17.09.2017 08:00:00 20,3 14,7 11 6 SE 1011,1 20
17.09.2017 07:00:00 - - - - - - -

tt = temperature
td = dewpoint
ff = wind speed
dd = wind direction
ppp = reduced air pressure
vv = visibility

Next stations